This demonstration page uses our WeatherBlox Daily Observations layout. Learn more.

Hourly Observations for June 13, 2018

Temp ( °F °C ) Dew Point ( °F °C ) Humidity (%) Winds ( mph kmh ) Pressure ( in mb ) Visibility ( mi km ) Precip ( " mm )
12:15 am 00:15 Clear 66 19.1 62 16.6 86 86 ENE 8 13 30 1016 10 16.09344 0 0
12:35 am 00:35 Clear 65 18.6 62 16.5 88 88 ENE 9 15 30 1016 10 16.09344 0 0
12:55 am 00:55 Clear 65 18.1 61 16.3 89 89 NE 7 11 30 1016 10 16.09344 0 0
1:15 am 01:15 Clear 65 18.2 62 16.6 90 90 ENE 8 13 30 1016 10 16.09344 0 0
1:35 am 01:35 Clear 64 18 62 16.6 92 92 NE 9 15 30 1016 10 16.09344 0 0
1:55 am 01:55 Clear 64 18 62 16.5 91 91 ENE 9 15 30 1016 10 16.09344 0 0
2:15 am 02:15 Clear 64 17.8 61 16.2 90 90 ENE 10 17 30 1016 10 16.09344 0 0
2:35 am 02:35 Clear 64 17.6 61 16 90 90 ENE 10 17 30 1016 10 16.09344 0 0
2:55 am 02:55 Clear 63 17.4 60 15.7 90 90 ENE 10 17 30 1016 10 16.09344 0 0
3:15 am 03:15 Partly Cloudy 63 17.2 60 15.5 90 90 ENE 10 17 30 1016 10 16.09344 0 0
3:35 am 03:35 Mostly Cloudy 63 17.2 60 15.5 90 90 E 9 15 30 1016 10 16.09344 0 0
3:55 am 03:55 Mostly Cloudy 63 17.1 59 15.1 88 88 E 8 13 30 1016 10 16.09344 0 0
4:15 am 04:15 Partly Cloudy 62 16.9 59 14.9 88 88 E 9 15 30 1016 10 16.09344 0 0
4:35 am 04:35 Clear 62 16.9 58 14.5 86 86 E 9 15 30 1016 10 16.09344 0 0
4:55 am 04:55 Clear 62 16.5 58 14.3 87 87 E 9 15 30.03 1017 10 16.09344 0 0
5:15 am 05:15 Clear 61 16.2 57 14 87 87 E 7 11 30.06 1018 10 16.09344 0 0
5:35 am 05:35 Mostly Cloudy 61 16.2 57 14.1 87 87 E 6 9 30.06 1018 10 16.09344 0 0
5:55 am 05:55 Partly Cloudy 61 16 57 14 88 88 E 8 13 30.06 1018 10 16.09344 0 0
6:15 am 06:15 Partly Cloudy 60 15.8 57 14 89 89 E 6 9 30.06 1018 10 16.09344 0 0
6:35 am 06:35 Mostly Cloudy 62 16.4 57 14 86 86 E 7 11 30.06 1018 10 16.09344 0 0
6:55 am 06:55 Mostly Cloudy 62 16.7 56 13.5 82 82 E 12 19 30.06 1018 10 16.09344 0 0
7:15 am 07:15 Mostly Cloudy 63 17 56 13.3 79 79 E 8 13 30.09 1019 10 16.09344 0 0
7:35 am 07:35 Mostly Cloudy 63 17.2 56 13.3 78 78 E 9 15 30.03 1017 10 16.09344 0 0
7:55 am 07:55 Partly Cloudy 64 17.9 56 13.5 76 76 E 10 17 30.03 1017 10 16.09344 0 0
8:15 am 08:15 Sunny 66 18.8 57 13.9 73 73 ESE 10 17 30.03 1017 10 16.09344 0 0
8:35 am 08:35 Sunny 66 18.7 57 13.7 73 73 ESE 14 22 30.03 1017 10 16.09344 0 0
8:55 am 08:55 Sunny 66 19 57 14 73 73 ESE 18 30 30 1016 10 16.09344 0 0
9:15 am 09:15 Sunny with Thunderstorms 67 19.3 57 14 72 72 SE 17 28 30.03 1017 10 16.09344 0 0
9:35 am 09:35 Mostly Cloudy with Nearby Thunderstorms 68 20 58 14.5 71 71 ESE 9 15 30.03 1017 10 16.09344 0 0
9:55 am 09:55 Cloudy 69 20.6 58 14.6 69 69 ESE 14 22 30 1016 10 16.09344 0 0
10:15 am 10:15 Cloudy 70 21.1 58 14.4 66 66 SE 15 24 30 1016 10 16.09344 0 0
10:35 am 10:35 Cloudy 70 21.2 57 14 64 64 ESE 15 24 29.97 1015 10 16.09344 0 0
10:55 am 10:55 Mostly Cloudy 73 23 58 14.5 59 59 ESE 17 28 29.97 1015 10 16.09344 0 0
11:15 am 11:15 Mostly Cloudy 73 22.8 57 13.8 57 57 SE 18 30 30 1016 10 16.09344 0 0
11:35 am 11:35 Mostly Cloudy 74 23.6 55 12.9 51 51 ESE 20 31 29.97 1015 10 16.09344 0 0
11:55 am 11:55 Cloudy 74 23.1 55 12.5 51 51 SE 16 26 30 1016 10 16.09344 0 0
12:15 pm 12:15 Cloudy 73 22.6 56 13.6 57 57 S 18 30 30.03 1017 10 16.09344 0 0
12:35 pm 12:35 Mostly Cloudy 74 23.1 58 14.3 58 58 S 18 30 30 1016 10 16.09344 0 0
12:55 pm 12:55 Mostly Cloudy 74 23.3 59 15.2 60 60 S 15 24 30 1016 10 16.09344 0 0
1:15 pm 13:15 Mostly Cloudy 74 23.3 60 15.4 61 61 SE 15 24 29.97 1015 10 16.09344 0 0
1:35 pm 13:35 Sunny 76 24.6 61 16.1 59 59 ESE 22 35 29.91 1013 10 16.09344 0 0
1:55 pm 13:55 Sunny 77 25.1 62 16.8 60 60 ESE 24 39 29.91 1013 10 16.09344 0 0
2:15 pm 14:15 Sunny 77 25.1 62 16.6 59 59 SE 20 31 29.91 1013 10 16.09344 0 0
2:35 pm 14:35 Sunny 78 25.4 62 16.6 58 58 ESE 18 30 29.88 1012 10 16.09344 0 0
2:55 pm 14:55 Sunny 78 25.6 62 16.8 58 58 ESE 17 28 29.88 1012 10 16.09344 0 0
3:15 pm 15:15 Sunny 80 26.5 63 17.1 56 56 ESE 15 24 29.83 1010 10 16.09344 0 0
3:35 pm 15:35 Sunny 80 26.7 63 17 55 55 SE 16 26 29.83 1010 10 16.09344 0 0
3:55 pm 15:55 Sunny 81 27 63 17.1 55 55 SE 12 19 29.8 1009 10 16.09344 0 0
4:15 pm 16:15 Sunny 82 27.6 63 17.1 53 53 SE 12 19 29.8 1009 10 16.09344 0 0
4:35 pm 16:35 Sunny 82 28 64 17.6 53 53 SE 18 30 29.83 1010 10 16.09344 0 0
4:55 pm 16:55 Sunny 82 27.7 63 17.4 53 53 SE 22 35 29.8 1009 10 16.09344 0 0
5:15 pm 17:15 Sunny 82 27.5 63 17.1 53 53 SE 17 28 29.8 1009 10 16.09344 0 0
5:35 pm 17:35 Sunny 81 27.3 64 17.6 55 55 SE 17 28 29.8 1009 10 16.09344 0 0
5:55 pm 17:55 Sunny 81 27.2 64 17.5 55 55 SE 18 30 29.8 1009 10 16.09344 0 0
6:15 pm 18:15 Sunny 81 27.2 64 17.8 57 57 SE 17 28 29.8 1009 10 16.09344 0 0
6:35 pm 18:35 Sunny 80 26.9 65 18.3 59 59 SE 18 30 29.77 1008 10 16.09344 0 0
6:55 pm 18:55 Sunny 80 26.7 65 18.4 60 60 SE 16 26 29.8 1009 10 16.09344 0 0
7:15 pm 19:15 Sunny 80 26.5 65 18.6 62 62 SSE 18 30 29.8 1009 10 16.09344 0 0
7:35 pm 19:35 Sunny 79 26.2 65 18.6 63 63 SSE 17 28 29.8 1009 10 16.09344 0 0
7:55 pm 19:55 Sunny 78 25.3 66 18.8 67 67 SE 16 26 29.8 1009 10 16.09344 0 0
8:15 pm 20:15 Sunny 77 24.8 66 19 70 70 SE 14 22 29.8 1009 10 16.09344 0 0
8:35 pm 20:35 Sunny 75 24.1 66 19 73 73 SE 12 19 29.8 1009 10 16.09344 0 0
8:55 pm 20:55 Sunny 74 23.6 66 19 75 75 SE 12 19 29.8 1009 10 16.09344 0 0
9:15 pm 21:15 Clear 73 23 66 19 78 78 ESE 12 19 29.8 1009 10 16.09344 0 0
9:35 pm 21:35 Clear 73 22.7 66 19 80 80 ESE 12 19 29.8 1009 10 16.09344 0 0
9:55 pm 21:55 Clear 73 22.5 66 19 81 81 SE 13 20 29.8 1009 10 16.09344 0 0
10:15 pm 22:15 Clear 72 22.2 66 19 82 82 SE 14 22 29.8 1009 10 16.09344 0 0
10:35 pm 22:35 Clear 72 22.1 66 18.8 82 82 SE 14 22 29.83 1010 10 16.09344 0 0
10:55 pm 22:55 Clear 71 21.8 65 18.5 82 82 SE 15 24 29.83 1010 10 16.09344 0 0
11:15 pm 23:15 Clear 71 21.7 65 18.4 82 82 SE 15 24 29.83 1010 10 16.09344 0 0
11:35 pm 23:35 Clear 71 21.6 65 18.5 83 83 SE 15 24 29.83 1010 10 16.09344 0 0
11:55 pm 23:55 Clear 71 21.6 66 18.7 84 84 SE 14 22 29.83 1010 10 16.09344 0 0

Powered by AerisWeather